This is the latest recevied weather packets stored in our database for station/object EA3KZ-1. If no packets are shown the sender has not sent any weather packets the latest 10 day(s).
| Time | Temp. | Humidity | Pressure | Rain* | Wind** | Luminosity | Snow |
|---|---|---|---|---|---|---|---|
| 1787705147 | 22.78° C | 68% | 1011.3 hPa | 0 mm | - | - | - |
| 1787704544 | 22.22° C | 66% | 1011.4 hPa | 0 mm | - | - | - |
| 1787703942 | 22.78° C | 65% | 1011.8 hPa | 0 mm | - | - | - |
| 1787703339 | 22.78° C | 64% | 1011.7 hPa | 0 mm | - | - | - |
| 1787702736 | 23.33° C | 64% | 1011.6 hPa | 0 mm | - | - | - |
| 1787702134 | 23.33° C | 63% | 1011.4 hPa | 0 mm | - | - | - |
| 1787701531 | 23.33° C | 64% | 1011.2 hPa | 0 mm | - | - | - |
| 1787700929 | 23.33° C | 64% | 1011.4 hPa | 0 mm | - | - | - |
| 1787700326 | 23.33° C | 64% | 1011.6 hPa | 0 mm | - | - | - |
| 1787699723 | 23.33° C | 67% | 1011.4 hPa | 0 mm | - | - | - |
| 1787699121 | 23.33° C | 67% | 1011.5 hPa | 0 mm | - | - | - |
| 1787698518 | 23.33° C | 68% | 1011.5 hPa | 0 mm | - | - | - |
| 1787697916 | 23.33° C | 65% | 1011.6 hPa | 0 mm | - | - | - |
| 1787697373 | 23.33° C | 64% | 1011.6 hPa | 0 mm | - | - | - |
| 1787696771 | 23.33° C | 63% | 1011.6 hPa | 0 mm | - | - | - |
| 1787696168 | 23.33° C | 63% | 1011.6 hPa | 0 mm | - | - | - |
| 1787695566 | 23.33° C | 63% | 1011.7 hPa | 0 mm | - | - | - |
| 1787694963 | 23.89° C | 62% | 1011.6 hPa | 0 mm | - | - | - |
| 1787694360 | 23.33° C | 62% | 1011.6 hPa | 0 mm | - | - | - |
| 1787693758 | 23.89° C | 62% | 1011.5 hPa | 0 mm | - | - | - |
| 1787693155 | 24.44° C | 60% | 1011.4 hPa | 0 mm | - | - | - |
| 1787692553 | 24.44° C | 59% | 1011.4 hPa | 0 mm | - | - | - |
| 1787691950 | 24.44° C | 58% | 1011.4 hPa | 0 mm | - | - | - |
| 1787691347 | 25° C | 58% | 1011 hPa | 0 mm | - | - | - |
| 1787690745 | 25° C | 58% | 1011 hPa | 0 mm | - | - | - |
* Rain latest hour (hover to see other rain measurements)
** Current wind speed in m/s (hover to see current wind gust speed)